| time (UTC) | temp C | wind direction | speed KPH | gust KPH | rain 1hr cm | rain 24hr cm | rain mn cm | humidity % | barometer mb |
| 20260504190002 | 21 | 260 | 6.4 | 17.7 | 0.00 | 0.00 | 0.00 | 63 | 1006.8 |
| 20260504184603 | 21 | 252 | 11.3 | 19.3 | 0.00 | 0.00 | 0.00 | 64 | 1006.8 |
| 20260504183031 | 21 | 263 | 8.0 | 14.5 | 0.00 | 0.00 | 0.00 | 65 | 1006.6 |
| 20260504181530 | 21 | 257 | 3.2 | 14.5 | 0.00 | 0.00 | 0.00 | 67 | 1006.8 |
| 20260504180028 | 21 | 235 | 8.0 | 12.9 | 0.00 | 0.00 | 0.00 | 68 | 1006.9 |
| 20260504174526 | 22 | 205 | 4.8 | 9.7 | 0.00 | 0.00 | 0.00 | 63 | 1006.7 |
| 20260504173022 | 22 | 15 | 1.6 | 4.8 | 0.00 | 0.00 | 0.00 | 53 | 1006.7 |
| 20260504171519 | 21 | 21 | 1.6 | 6.4 | 0.00 | 0.00 | 0.00 | 56 | 1006.8 |
| 20260504081505 | 14 | 20 | 0.0 | 1.6 | 0.00 | 0.00 | 0.00 | 75 | 1005.5 |
| 20260504044546 | 17 | 254 | 0.0 | 0.0 | 0.00 | 0.00 | 0.00 | 66 | 1005.7 |
| 20260504043054 | 18 | 254 | 0.0 | 0.0 | 0.00 | 0.00 | 0.00 | 65 | 1005.7 |
| 20260504041546 | 18 | 254 | 0.0 | 0.0 | 0.00 | 0.00 | 0.00 | 66 | 1005.7 |
| 20260504040046 | 18 | 254 | 0.0 | 3.2 | 0.00 | 0.00 | 0.00 | 66 | 1005.8 |
| 20260504034552 | 19 | 254 | 1.6 | 4.8 | 0.00 | 0.00 | 0.00 | 65 | 1005.7 |
| 20260504033044 | 19 | 254 | 0.0 | 0.0 | 0.00 | 0.00 | 0.00 | 65 | 1005.7 |
| 20260504031544 | 20 | 254 | 0.0 | 0.0 | 0.00 | 0.00 | 0.00 | 64 | 1005.5 |
| 20260504030042 | 20 | 254 | 0.0 | 3.2 | 0.00 | 0.00 | 0.00 | 64 | 1005.6 |
| 20260504024548 | 21 | 254 | 1.6 | 6.4 | 0.00 | 0.00 | 0.00 | 63 | 1005.7 |
| 20260504023041 | 21 | 259 | 1.6 | 4.8 | 0.00 | 0.00 | 0.00 | 57 | 1005.7 |
| 20260504021540 | 22 | 259 | 0.0 | 4.8 | 0.00 | 0.00 | 0.00 | 56 | 1005.9 |
| 20260504020041 | 22 | 329 | 1.6 | 6.4 | 0.00 | 0.00 | 0.00 | 52 | 1006.0 |
| 20260504014538 | 23 | 265 | 1.6 | 8.0 | 0.00 | 0.00 | 0.00 | 51 | 1006.2 |
| 20260504013044 | 23 | 261 | 3.2 | 11.3 | 0.00 | 0.00 | 0.00 | 51 | 1006.2 |
| 20260504011532 | 24 | 258 | 3.2 | 11.3 | 0.00 | 0.00 | 0.00 | 49 | 1006.3 |
| 20260504010030 | 25 | 263 | 0.0 | 6.4 | 0.00 | 0.00 | 0.00 | 45 | 1006.6 |
| 20260504004530 | 25 | 5 | 1.6 | 8.0 | 0.00 | 0.00 | 0.00 | 44 | 1006.7 |
| 20260504003028 | 25 | 259 | 1.6 | 6.4 | 0.00 | 0.00 | 0.00 | 45 | 1006.9 |
| 20260504001534 | 25 | 271 | 3.2 | 12.9 | 0.00 | 0.00 | 0.00 | 44 | 1006.9 |
| 20260504000023 | 26 | 254 | 0.0 | 6.4 | 0.00 | 0.00 | 0.00 | 43 | 1007.2 |
| 20260503234522 | 26 | 267 | 1.6 | 8.0 | 0.00 | 0.00 | 0.00 | 40 | 1007.3 |
| 20260503233021 | 25 | 55 | 1.6 | 9.7 | 0.00 | 0.00 | 0.00 | 43 | 1007.5 |
| 20260503231516 | 25 | 259 | 1.6 | 11.3 | 0.00 | 0.00 | 0.00 | 45 | 1007.6 |
| 20260503230032 | 25 | 333 | 1.6 | 12.9 | 0.00 | 0.00 | 0.00 | 47 | 1007.9 |
| 20260503224513 | 25 | 242 | 3.2 | 11.3 | 0.00 | 0.00 | 0.00 | 46 | 1008.2 |
| 20260503223010 | 25 | 209 | 3.2 | 12.9 | 0.00 | 0.00 | 0.00 | 48 | 1008.3 |
| 20260503221508 | 25 | 246 | 3.2 | 12.9 | 0.00 | 0.00 | 0.00 | 48 | 1008.6 |
| 20260503220004 | 24 | 28 | 1.6 | 12.9 | 0.00 | 0.00 | 0.00 | 53 | 1008.7 |
| 20260503214503 | 23 | 257 | 4.8 | 12.9 | 0.00 | 0.00 | 0.00 | 52 | 1008.8 |
| 20260503213103 | 24 | 263 | 3.2 | 11.3 | 0.00 | 0.00 | 0.00 | 50 | 1008.9 |
| 20260503211553 | 23 | 240 | 4.8 | 14.5 | 0.00 | 0.00 | 0.00 | 54 | 1009.0 |
| 20260503210031 | 24 | 23 | 3.2 | 12.9 | 0.00 | 0.00 | 0.00 | 54 | 1009.2 |
| 20260503204530 | 23 | 254 | 3.2 | 11.3 | 0.00 | 0.00 | 0.00 | 53 | 1009.4 |
| 20260503203034 | 23 | 263 | 3.2 | 11.3 | 0.00 | 0.00 | 0.00 | 55 | 1009.7 |
| 20260503201524 | 22 | 246 | 4.8 | 16.1 | 0.00 | 0.00 | 0.00 | 52 | 1009.8 |
| 20260503200026 | 23 | 249 | 1.6 | 11.3 | 0.00 | 0.00 | 0.00 | 50 | 1009.9 |
| 20260503194520 | 23 | 254 | 1.6 | 11.3 | 0.00 | 0.00 | 0.00 | 55 | 1010.2 |
| 20260503193033 | 22 | 253 | 3.2 | 12.9 | 0.00 | 0.00 | 0.00 | 57 | 1010.2 |